Change the Weather History Date:

Monday, March 18, 2013

  Actual Average Record
Temperature  
Mean Temperature 33 °F -  
Max Temperature 40 °F 57 °F - ()
Min Temperature 24 °F 36 °F - ()
Degree Days  
Heating Degree Days 32    
Moisture  
Dew Point 18 °F    
Average Humidity 54    
Maximum Humidity 86    
Minimum Humidity 23    
Precipitation  
Precipitation 0.00 in 0.06 in - ()
Sea Level Pressure  
Sea Level Pressure 30.02 in    
Wind  
Wind Speed 12 mph ()    
Max Wind Speed 18 mph    
Max Gust Speed 31 mph    
Visibility 6.2 miles    
Events      
T = Trace of Precipitation, MM = Missing Value Source: Averaged Metar Reports

Daily Weather History Graph

Daily Weather History Graph

Search for Another Location

Airport or City:

Trip Planner

Search our weather history database for the weather conditions in past years. The results will help you decide how hot, cold, wet, or windy it might be!

Date:

Astronomy

Mar. 18, 2013 Rise Set
Actual Time 5:28 AM EET 5:31 PM EET
Civil Twilight 5:01 AM EET 5:58 PM EET
Nautical Twilight 4:30 AM EET 6:30 PM EET
Astronomical Twilight 3:58 AM EET 7:02 PM EET
Moon 9:11 AM EET (3/18) No Moon Set
Length of Visible Light 12h 56m
Length of Day
12h 03m
Waxing Crescent, 38% of the Moon is Illuminated
Mar 18
Waxing Crescent
Mar 19
First Quarter
Mar 27
Full
Apr 3
Last Quarter
Apr 10
New

Hourly Weather History & Observations

Time (EET) Temp. Windchill Dew Point Humidity Pressure Visibility Wind Dir Wind Speed Gust Speed Precip Events Conditions
12:50 AM 32.0 °F 23.0 °F 21.2 °F 64% 29.89 in 6.2 mi North 11.5 mph - N/A   Mostly Cloudy
1:50 AM 32.0 °F 21.2 °F 19.4 °F 60% 29.92 in 6.2 mi NW 16.1 mph - N/A   Mostly Cloudy
2:00 AM 33 °F - 18 °F 41%  in 6 mi NW 16.1 mph - -   Partly Cloudy
2:50 AM 32.0 °F 21.2 °F 21.2 °F 64% 29.92 in 6.2 mi NW 16.1 mph - N/A   Mostly Cloudy
3:50 AM 32.0 °F 22.5 °F 19.4 °F 60% 29.95 in 6.2 mi NW 12.7 mph - N/A   Mostly Cloudy
4:50 AM 30.2 °F 20.2 °F 19.4 °F 64% 29.98 in 6.2 mi NW 12.7 mph - N/A   Mostly Cloudy
5:50 AM 30.2 °F 20.2 °F 17.6 °F 60% 30.01 in 6.2 mi NW 12.7 mph - N/A   Scattered Clouds
6:50 AM 32.0 °F 21.2 °F 17.6 °F 55% 30.01 in 6.2 mi NW 16.1 mph 28.8 mph N/A   Scattered Clouds
7:50 AM 33.8 °F 23.5 °F 15.8 °F 48% 30.04 in 6.2 mi North 16.1 mph 31.1 mph N/A   Scattered Clouds
8:00 AM 33 °F - 15 °F 34%  in 6 mi North 16.1 mph - -   Partly Cloudy
8:50 AM 33.8 °F 22.8 °F 17.6 °F 52% 30.04 in 6.2 mi NNW 18.4 mph - N/A   Scattered Clouds
9:50 AM 35.6 °F 26.6 °F 17.6 °F 48% 30.04 in 6.2 mi North 13.8 mph - N/A   Scattered Clouds
10:50 AM 37.4 °F 28.9 °F 17.6 °F 45% 30.04 in 6.2 mi NNW 13.8 mph - N/A   Scattered Clouds
11:50 AM 37.4 °F 29.8 °F 17.6 °F 45% 30.04 in 6.2 mi North 11.5 mph - N/A   Scattered Clouds
12:50 PM 41.0 °F 32.5 °F 17.6 °F 39% 30.04 in 6.2 mi NNW 17.3 mph - N/A   Scattered Clouds
1:50 PM 39.2 °F 30.2 °F 17.6 °F 42% 30.04 in 6.2 mi NW 17.3 mph - N/A   Scattered Clouds
2:00 PM 40 °F - 15 °F 23%  in 6 mi NW 17.3 mph - -   Partly Cloudy
2:50 PM 39.2 °F 29.8 °F 17.6 °F 42% 30.04 in 6.2 mi NNW 18.4 mph - N/A   Scattered Clouds
3:50 PM 35.6 °F 26.6 °F 17.6 °F 48% 30.04 in 6.2 mi NNW 13.8 mph - N/A   Scattered Clouds
4:50 PM 37.4 °F 30.3 °F 14.0 °F 38% 30.04 in 6.2 mi NNW 10.4 mph - N/A   Scattered Clouds
5:50 PM 33.8 °F 25.8 °F 17.6 °F 52% 30.04 in 6.2 mi WNW 10.4 mph - N/A   Scattered Clouds
6:50 PM 30.2 °F 21.9 °F 21.2 °F 69% 30.06 in 6.2 mi West 9.2 mph - N/A   Scattered Clouds
7:50 PM 30.2 °F 21.9 °F 19.4 °F 64% 30.06 in 6.2 mi West 9.2 mph - N/A   Scattered Clouds
8:00 PM 31 °F - 18 °F 47%  in 6 mi West 9.2 mph - -   Partly Cloudy
8:50 PM 30.2 °F 26.7 °F 19.4 °F 64% 30.06 in 6.2 mi WNW 3.5 mph - N/A   Scattered Clouds
9:50 PM 28.4 °F - 21.2 °F 74% 30.06 in 6.2 mi SW 1.2 mph - N/A   Scattered Clouds
10:50 PM 26.6 °F - 21.2 °F 80% 30.06 in 6.2 mi North 2.3 mph - N/A   Scattered Clouds
11:50 PM 24.8 °F - 21.2 °F 86% 30.06 in 6.2 mi Variable 1.2 mph - N/A   Scattered Clouds